Alliance, NE

6:45 PM MST on February 27, 2017 (GMT -0700)
Alliance Municipal

Weather History for KAIA - September, 2013

Change the Weather History Date:

Wednesday, September 4, 2013

  Actual Average Record
Temperature  
Mean Temperature 77 °F 65 °F  
Max Temperature 98 °F 81 °F 101 °F (1998)
Min Temperature 56 °F 48 °F 32 °F (2011)
Degree Days  
Heating Degree Days 0 3  
Month to date heating degree days 0 11  
Since 1 July heating degree days 8 48  
Cooling Degree Days 12 3  
Month to date cooling degree days 38 12  
Year to date cooling degree days 697 535  
Growing Degree Days 26 (Base 50)    
Moisture  
Dew Point 57 °F    
Average Humidity 55    
Maximum Humidity 86    
Minimum Humidity 24    
Precipitation  
Precipitation T in 0.06 in 1.10 in (1912)
Month to date precipitation T 0.22  
Year to date precipitation 9.06 12.63  
Sea Level Pressure  
Sea Level Pressure 29.98 in    
Wind  
Wind Speed 7 mph (North)    
Max Wind Speed 23 mph    
Max Gust Speed 29 mph    
Visibility 10 miles    
Events Rain , Thunderstorm    
T = Trace of Precipitation, MM = Missing Value Source: NWS Daily Summary

Daily Weather History Graph

Daily Weather History Graph

Search for Another Location

Airport or City:

Trip Planner

Search our weather history database for the weather conditions in past years. The results will help you decide how hot, cold, wet, or windy it might be!

Date:

Astronomy

Sep. 04, 2013 Rise Set
Actual Time 6:20 AM MDT 7:19 PM MDT
Civil Twilight 5:51 AM MDT 7:47 PM MDT
Nautical Twilight 5:17 AM MDT 8:21 PM MDT
Astronomical Twilight 4:42 AM MDT 8:57 PM MDT
Moon 5:34 AM MDT (9/4) 6:39 PM MDT (9/4)
Length of Visible Light 13h 56m
Length of Day
12h 59m
Waning Crescent, 1% of the Moon is Illuminated
Sep 4
Waning Crescent
Sep 5
New
Sep 12
First Quarter
Sep 19
Full
Sep 26
Last Quarter

Hourly Weather History & Observations

Time (MDT) Temp. Heat Index Dew Point Humidity Pressure Visibility Wind Dir Wind Speed Gust Speed Precip Events Conditions
12:53 AM 66.9 °F - 55.9 °F 68% 29.90 in 10.0 mi NNW 5.8 mph - N/A   Clear
1:53 AM 66.9 °F - 55.0 °F 66% 29.90 in 10.0 mi NNW 6.9 mph - N/A   Clear
2:53 AM 62.1 °F - 54.0 °F 75% 29.91 in 10.0 mi WNW 4.6 mph - N/A   Clear
3:53 AM 61.0 °F - 54.0 °F 78% 29.91 in 10.0 mi West 4.6 mph - N/A   Clear
4:53 AM 57.0 °F - 53.1 °F 87% 29.96 in 10.0 mi South 6.9 mph - N/A   Clear
5:53 AM 57.0 °F - 53.1 °F 87% 29.97 in 10.0 mi SW 4.6 mph - N/A   Clear
6:53 AM 60.1 °F - 55.0 °F 83% 30.00 in 10.0 mi NW 3.5 mph - N/A   Clear
7:53 AM 69.1 °F - 59.0 °F 70% 30.00 in 10.0 mi NNW 8.1 mph - N/A   Clear
8:53 AM 75.0 °F - 60.1 °F 60% 30.00 in 10.0 mi North 10.4 mph - N/A   Clear
9:53 AM 81.0 °F 81.6 °F 60.1 °F 49% 30.00 in 10.0 mi NNE 10.4 mph - N/A   Clear
10:53 AM 88.0 °F 87.6 °F 60.1 °F 39% 29.99 in 10.0 mi NNE 9.2 mph - N/A   Clear
11:53 AM 91.9 °F 90.8 °F 57.9 °F 32% 29.99 in 10.0 mi ENE 6.9 mph - N/A   Clear
12:53 PM 93.9 °F 92.6 °F 57.0 °F 29% 29.97 in 10.0 mi Variable 4.6 mph - N/A   Clear
1:53 PM 96.1 °F 93.8 °F 54.0 °F 24% 29.96 in 10.0 mi East 9.2 mph - N/A   Clear
2:53 PM 96.1 °F 94.5 °F 55.9 °F 26% 29.96 in 10.0 mi SE 8.1 mph - N/A   Clear
3:53 PM 96.1 °F 93.8 °F 54.0 °F 24% 29.94 in 10.0 mi Variable 4.6 mph - N/A   Clear
4:37 PM 93.2 °F 90.8 °F 53.6 °F 26% 30.09 in 10.0 mi NNE 3.5 mph - N/A Thunderstorm Clear
4:53 PM 93.0 °F 90.6 °F 53.1 °F 26% 29.95 in 10.0 mi ENE 5.8 mph - N/A Thunderstorm Partly Cloudy
5:53 PM 78.1 °F - 62.1 °F 58% 30.01 in 10.0 mi WNW 16.1 mph 26.5 mph 0.00 in Rain , Thunderstorm Light Thunderstorms and Rain
6:40 PM 78.8 °F - 62.6 °F 57% 30.11 in 10.0 mi SSE 15.0 mph 24.2 mph 0.00 in   Scattered Clouds
6:53 PM 80.1 °F 80.9 °F 60.1 °F 50% 29.99 in 10.0 mi SE 11.5 mph - 0.00 in   Partly Cloudy
7:53 PM 75.0 °F - 60.1 °F 60% 30.03 in 10.0 mi SSW 16.1 mph 24.2 mph N/A   Clear
8:53 PM 75.9 °F - 57.9 °F 54% 29.98 in 10.0 mi South 8.1 mph - N/A   Clear
9:53 PM 73.9 °F - 57.9 °F 57% 29.99 in 10.0 mi Calm Calm - N/A   Clear
10:53 PM 73.0 °F - 60.1 °F 64% 30.02 in 10.0 mi NNW 9.2 mph - N/A   Clear
11:53 PM 69.1 °F - 57.9 °F 68% 30.00 in 10.0 mi Calm Calm - N/A   Clear